Location: *
(13.0000°N, 151.6000°E)
Time: 15:57:51
(UTC+00:00)

Cosmos 1980 - Pass Details

Date: 01 April 2020
Orbit: 841 x 845 km, 71.0° (Epoch: 04 June)

Event Time Altitude Azimuth Distance (km) Brightness Sun altitude
Rises 18:19:25 0° 347° (NNW) 3,389 6.8 -22.5°
Reaches altitude 10° 18:21:52 10° 349° (N) 2,453 6.1 -21.9°
Maximum altitude 18:27:29 73° 74° (ENE) 875 3.9 -20.6°
Drops below altitude 10° 18:33:05 10° 158° (SSE) 2,450 6.2 -19.2°
Sets 18:35:32 0° 160° (SSE) 3,384 7.0 -18.6°
